#timestamp,LO_Frequency,Hit,StdDev 
1599811295.1,286046952.4,P
1599811296.0,286046952.4,P
1599811315.8,286046950.5,P
1599811335.6,286046950.9,Y
1599811355.5,286046996.7,P
1599811375.3,286046997.4,N
1599811395.2,286046995.4,N
1599811415.9,286046993.7,N
1599811435.7,286046992.2,N
1599811455.6,286046993.1,N
1599811475.4,286046990.6,N
1599811495.2,286046991.5,N
1599811515.1,286046989.4,N
1599811516.0,286046989.4,N
1599811535.8,286046985.7,N
1599811555.7,286046986.6,N
1599811575.5,286046984.9,N
1599811595.3,286046983.6,N
1599811615.2,286046979.3,N
1599811635.0,286046982.0,N
1599811635.9,286046982.0,N
1599811655.8,286046979.1,N
1599811675.6,286046979.9,N
1599811695.4,286046980.3,N
1599811715.3,286046977.8,N
1599811735.1,286046978.3,N
1599811755.8,286046976.5,N
1599811775.7,286046975.0,N
1599811795.5,286046973.3,N
1599811815.4,286046971.1,Y
1599811835.2,286046987.0,P
1599811855.0,286046988.3,P
1599811855.9,286046988.3,P
1599811875.8,286046986.7,Y
1599811895.6,286046996.7,P
1599811915.5,286046995.2,N
1599811935.3,286046995.7,N
1599811955.1,286046993.8,N
1599811975.9,286046993.9,N
1599811995.7,286046992.2,N
1599812015.5,286046993.2,N
1599812035.4,286046991.1,Y
1599812055.2,286046993.9,P
1599812075.1,286046994.6,P
1599812076.0,286046994.6,P
1599812095.8,286046992.8,Y
1599812115.6,286046997.6,P
1599812135.5,286046997.7,N
1599812155.3,286046995.3,N
1599812175.1,286046996.4,N
1599812195.9,286046993.7,Y
1599812215.7,286046997.7,P
1599812235.6,286046995.1,P
1599812255.4,286046996.1,P
1599812275.2,286046996.1,Y
1599812295.1,286046996.5,P
1599812296.0,286046996.5,P
1599812315.8,286046995.4,P
1599812335.7,286046995.2,Y
1599812355.5,286046999.0,P
1599812375.3,286046998.9,N
1599812395.2,286046999.3,N
1599812415.0,286046995.3,Y
1599812415.9,286046995.3,P
1599812435.8,286046997.1,N
1599812455.6,286046997.2,N
1599812475.4,286046995.4,Y
1599812495.3,286046998.0,P
1599812515.1,286046996.2,P
1599812535.8,286046993.6,P
1599812555.7,286046992.7,Y
1599812575.5,286046994.5,P
1599812595.4,286046992.0,P
1599812615.2,286046990.9,P
1599812635.0,286046988.5,Y
1599812636.0,286046988.5,P
1599812655.8,286046995.9,N
1599812675.6,286046996.0,N
1599812695.5,286046993.4,N
1599812715.3,286046995.8,N
1599812735.1,286046993.3,N
1599812755.9,286046994.1,N
1599812775.7,286046994.7,N
1599812795.6,286046992.3,Y
1599812815.4,286046998.0,P
1599812835.2,286046995.5,N
1599812855.1,286046996.2,N
1599812856.0,286046996.2,N
1599812875.8,286046993.7,Y
1599812895.7,286046997.7,P
1599812915.5,286046996.4,P
1599812935.3,286046994.6,P
1599812955.2,286046994.4,Y
1599812975.0,286046996.9,P
1599812975.9,286046996.9,P
1599812995.8,286046997.1,P
1599813015.6,286046995.5,Y
1599813035.4,286046999.1,P
1599813055.3,286046995.1,P
1599813075.1,286046996.1,N
1599813095.9,286046996.3,N
1599813115.7,286046992.1,Y
1599813135.5,286046996.1,P
1599813155.4,286046994.8,P
1599813175.2,286046990.1,P
1599813195.1,286046990.3,Y
1599813196.0,286046990.3,P
1599813215.8,286046997.5,N
1599813235.6,286046996.2,N
1599813255.5,286046993.8,N
1599813275.3,286046995.1,N
1599813295.1,286046994.3,N
1599813315.9,286046992.2,Y
1599813335.7,286046999.5,P
1599813355.6,286046999.6,N
1599813375.4,286046997.4,N
1599813395.2,286046995.5,N
1599813415.1,286046993.5,Y
1599813416.0,286046993.5,P
1599813435.8,286046993.6,P
1599813455.6,286046994.8,N
1599813475.5,286046992.5,Y
1599813495.3,286046996.9,P
1599813515.2,286046997.7,N
1599813535.9,286046993.8,P
1599813555.7,286046994.8,Y
1599813575.6,286046997.6,P
1599813595.4,286046993.7,P
1599813615.3,286046994.5,P
1599813635.1,286046991.7,Y
1599813636.0,286046991.7,P
1599813655.8,286046997.9,N
1599813675.7,286046996.2,N
1599813695.5,286046994.5,N
1599813715.4,286046992.2,Y
1599813735.2,286046997.5,P
1599813755.0,286046995.8,P
1599813755.9,286046995.8,P
1599813775.8,286046993.5,Y
1599813795.6,286046999.6,P
1599813815.4,286046995.9,N
1599813835.3,286046994.5,P
1599813855.1,286046994.4,N
1599813875.9,286046994.4,N
1599813895.7,286046992.9,Y
1599813915.5,286046995.0,P
1599813935.4,286046995.4,P
1599813955.2,286046996.2,P
1599813975.1,286046994.5,Y
1599813976.0,286046994.5,P
1599813995